Zurück zum Katalog

STARLINK-35030

AktivKommunikationSSO
NORAD 65448·PAYLOAD·🇺🇸 United States

Gestartet Sep 3, 2025 von Vandenberg Space Force Base

Loading…

Nächste Überflüge (nächste 24 Stunden)

TLE

AktuellSource: CelesTrak SupGP

Epoche: Sep 14, 2026, 21:17 UTC

1 65448C 25194Q   26257.88729167  .00051937  00000+0  16124-2 0  2575
2 65448  97.2841 107.5390 0001715  91.8251 245.0936 15.33408672    14

Verfolge STARLINK-35030 in Echtzeit mit AllMySat

Download on the App Store